Location: ????????
(55.6189°N, 38.3031°E)
Time: 15:14:20
(UTC+00:00)

Cosmos 1315 Rocket - Pass Details

Date: 15 November 2019
Orbit: 530 x 568 km, 81.2° (Epoch: 09 December)

Event Time Altitude Azimuth Distance (km) Brightness Sun altitude
Rises 03:40:03 0° 348° (NNW) 2,708 6.1 -11.1°
Reaches altitude 10° 03:42:16 10° 354° (N) 1,817 5.2 -10.8°
Maximum altitude 03:46:09 49° 70° (ENE) 713 3.8 -10.3°
Drops below altitude 10° 03:50:04 10° 147° (SSE) 1,825 6.3 -9.8°
Sets 03:52:17 0° 152° (SSE) 2,721 7.1 -9.5°
